| time (UTC) | temp C | wind direction | speed KPH | gust KPH | rain 1hr cm | rain 24hr cm | rain mn cm | humidity % | barometer mb |
| 20260507094540 | 8 | 208 | 0.0 | 0.0 | 0.00 | 0.00 | 0.00 | 21 | 1020.3 |
| 20260507093037 | 8 | 208 | 0.0 | 0.0 | 0.00 | 0.00 | 0.00 | 25 | 1020.3 |
| 20260507091534 | 8 | 208 | 0.0 | 0.0 | 0.00 | 0.00 | 0.00 | 33 | 1020.4 |
| 20260507090036 | 8 | 208 | 0.0 | 0.0 | 0.00 | 0.00 | 0.00 | 42 | 1020.4 |
| 20260507084527 | 8 | 208 | 0.0 | 0.0 | 0.00 | 0.00 | 0.00 | 49 | 1020.3 |
| 20260507083024 | 9 | 208 | 0.0 | 0.0 | 0.00 | 0.00 | 0.00 | 54 | 1020.3 |
| 20260507081534 | 10 | 208 | 0.0 | 0.0 | 0.00 | 0.00 | 0.00 | 58 | 1020.3 |
| 20260507080019 | 10 | 208 | 0.0 | 0.0 | 0.00 | 0.00 | 0.00 | 60 | 1020.4 |
| 20260507074527 | 10 | 208 | 0.0 | 0.0 | 0.00 | 0.00 | 0.00 | 61 | 1020.4 |
| 20260507073015 | 10 | 208 | 0.0 | 0.0 | 0.00 | 0.00 | 0.00 | 61 | 1020.3 |
| 20260507071515 | 10 | 209 | 3.2 | 0.0 | 0.00 | 0.00 | 0.00 | 63 | 1020.1 |
| 20260507070019 | 11 | 195 | 1.6 | 0.0 | 0.00 | 0.00 | 0.00 | 64 | 1020.1 |
| 20260507064511 | 11 | 196 | 0.0 | 0.0 | 0.00 | 0.00 | 0.00 | 64 | 1020.1 |
| 20260507063011 | 11 | 195 | 1.6 | 0.0 | 0.00 | 0.00 | 0.00 | 63 | 1020.1 |
| 20260507061503 | 11 | 196 | 0.0 | 0.0 | 0.00 | 0.00 | 0.00 | 62 | 1020.1 |
| 20260507060059 | 11 | 196 | 0.0 | 0.0 | 0.00 | 0.00 | 0.00 | 61 | 1020.1 |
| 20260507054637 | 11 | 196 | 1.6 | 0.0 | 0.00 | 0.00 | 0.00 | 58 | 1020.1 |
| 20260507053053 | 11 | 163 | 0.0 | 0.0 | 0.00 | 0.00 | 0.00 | 52 | 1020.2 |
| 20260507051546 | 11 | 162 | 0.0 | 0.0 | 0.00 | 0.00 | 0.00 | 49 | 1020.1 |
| 20260507050042 | 11 | 161 | 0.0 | 0.0 | 0.00 | 0.00 | 0.00 | 50 | 1020.4 |
| 20260507044544 | 12 | 157 | 0.0 | 0.0 | 0.00 | 0.00 | 0.00 | 51 | 1020.4 |
| 20260507043032 | 12 | 98 | 0.0 | 0.0 | 0.00 | 0.00 | 0.00 | 52 | 1020.3 |
| 20260507041528 | 12 | 92 | 0.0 | 0.0 | 0.00 | 0.00 | 0.00 | 53 | 1020.3 |
| 20260507040026 | 12 | 162 | 0.0 | 0.0 | 0.00 | 0.00 | 0.00 | 53 | 1020.1 |
| 20260507034520 | 12 | 162 | 0.0 | 0.0 | 0.00 | 0.00 | 0.00 | 56 | 1020.0 |
| 20260507033020 | 12 | 162 | 0.0 | 0.0 | 0.00 | 0.00 | 0.00 | 59 | 1019.7 |
| 20260507031511 | 12 | 196 | 1.6 | 0.0 | 0.00 | 0.00 | 0.00 | 57 | 1019.7 |
| 20260507030007 | 12 | 192 | 1.6 | 0.0 | 0.00 | 0.00 | 0.00 | 58 | 1019.5 |
| 20260507024503 | 12 | 208 | 1.6 | 0.0 | 0.00 | 0.00 | 0.00 | 59 | 1019.5 |
| 20260507023105 | 12 | 221 | 3.2 | 0.0 | 0.00 | 0.00 | 0.00 | 61 | 1019.2 |
| 20260507021553 | 13 | 206 | 1.6 | 0.0 | 0.00 | 0.00 | 0.00 | 62 | 1019.3 |
| 20260507020054 | 13 | 195 | 1.6 | 0.0 | 0.00 | 0.00 | 0.00 | 64 | 1019.3 |
| 20260507014551 | 13 | 318 | 0.0 | 0.0 | 0.00 | 0.00 | 0.00 | 64 | 1019.4 |
| 20260507013044 | 13 | 311 | 1.6 | 0.0 | 0.00 | 0.00 | 0.00 | 65 | 1019.2 |
| 20260507011535 | 14 | 179 | 0.0 | 0.0 | 0.00 | 0.00 | 0.00 | 65 | 1019.4 |
| 20260507010034 | 14 | 201 | 4.8 | 0.0 | 0.00 | 0.00 | 0.00 | 66 | 1019.2 |
| 20260507004527 | 15 | 329 | 1.6 | 0.0 | 0.00 | 0.00 | 0.00 | 65 | 1019.4 |
| 20260507003022 | 15 | 192 | 3.2 | 0.0 | 0.00 | 0.00 | 0.00 | 65 | 1019.4 |
| 20260507001524 | 15 | 165 | 1.6 | 0.0 | 0.00 | 0.00 | 0.00 | 66 | 1019.4 |
| 20260507000016 | 15 | 320 | 1.6 | 0.0 | 0.00 | 0.00 | 0.00 | 66 | 1019.5 |
| 20260506234513 | 15 | 172 | 1.6 | 0.0 | 0.00 | 0.00 | 0.00 | 66 | 1019.4 |
| 20260506233005 | 16 | 211 | 4.8 | 0.0 | 0.00 | 0.00 | 0.00 | 65 | 1019.4 |
| 20260506231501 | 16 | 226 | 3.2 | 0.0 | 0.00 | 0.00 | 0.00 | 65 | 1019.4 |
| 20260506230056 | 16 | 234 | 3.2 | 0.0 | 0.00 | 0.00 | 0.00 | 64 | 1019.1 |
| 20260506224552 | 16 | 187 | 6.4 | 0.0 | 0.00 | 0.00 | 0.00 | 65 | 1019.3 |
| 20260506223048 | 16 | 351 | 4.8 | 0.0 | 0.00 | 0.00 | 0.00 | 64 | 1019.5 |
| 20260506221543 | 16 | 17 | 1.6 | 0.0 | 0.00 | 0.00 | 0.00 | 64 | 1019.5 |
| 20260506220039 | 16 | 192 | 1.6 | 0.0 | 0.00 | 0.00 | 0.00 | 65 | 1019.6 |
| 20260506214535 | 16 | 320 | 3.2 | 0.0 | 0.00 | 0.00 | 0.00 | 65 | 1019.6 |
| 20260506213031 | 15 | 215 | 6.4 | 0.0 | 0.00 | 0.00 | 0.00 | 64 | 1019.5 |
| 20260506211525 | 15 | 246 | 1.6 | 0.0 | 0.00 | 0.00 | 0.00 | 64 | 1019.7 |
| 20260506210021 | 14 | 174 | 3.2 | 0.0 | 0.00 | 0.00 | 0.00 | 64 | 1019.7 |
| 20260506204523 | 14 | 223 | 3.2 | 0.0 | 0.00 | 0.00 | 0.00 | 62 | 1019.6 |
| 20260506203015 | 13 | 213 | 1.6 | 0.0 | 0.00 | 0.00 | 0.00 | 61 | 1019.8 |
| 20260506201508 | 13 | 175 | 3.2 | 0.0 | 0.00 | 0.00 | 0.00 | 57 | 1019.5 |
| 20260506200004 | 13 | 153 | 0.0 | 0.0 | 0.00 | 0.00 | 0.00 | 49 | 1019.5 |
| 20260506194634 | 13 | 189 | 1.6 | 0.0 | 0.00 | 0.00 | 0.00 | 40 | 1019.7 |
| 20260506193104 | 12 | 209 | 1.6 | 0.0 | 0.00 | 0.00 | 0.00 | 29 | 1019.5 |
| 20260506191551 | 12 | 306 | 3.2 | 0.0 | 0.00 | 0.00 | 0.00 | 23 | 1019.6 |
| 20260506190046 | 12 | 115 | 0.0 | 0.0 | 0.00 | 0.00 | 0.00 | 12 | 1019.6 |
| 20260506184542 | 12 | 259 | 1.6 | 0.0 | 0.00 | 0.00 | 0.00 | 6 | 1019.7 |
| 20260506183039 | 12 | 253 | 0.0 | 0.0 | 0.00 | 0.00 | 0.00 | 100 | 1019.5 |
| 20260506181533 | 12 | 185 | 1.6 | 0.0 | 0.00 | 0.00 | 0.00 | 100 | 1019.2 |
| 20260506180034 | 12 | 97 | 0.0 | 0.0 | 0.00 | 0.00 | 0.00 | 100 | 1019.6 |
| 20260506174525 | 11 | 190 | 1.6 | 0.0 | 0.00 | 0.00 | 0.00 | 100 | 1019.2 |
| 20260506173020 | 11 | 198 | 0.0 | 0.0 | 0.00 | 0.00 | 0.00 | 100 | 1019.3 |
| 20260506171517 | 11 | 178 | 0.0 | 0.0 | 0.00 | 0.00 | 0.00 | 100 | 1019.2 |
| 20260506170011 | 11 | 176 | 0.0 | 0.0 | 0.00 | 0.00 | 0.00 | 100 | 1019.2 |
| 20260506164508 | 11 | 173 | 0.0 | 0.0 | 0.00 | 0.00 | 0.00 | 100 | 1019.3 |
| 20260506163004 | 11 | 221 | 0.0 | 0.0 | 0.00 | 0.00 | 0.00 | 100 | 1019.2 |
| 20260506161616 | 11 | 173 | 1.6 | 0.0 | 0.00 | 0.00 | 0.00 | 100 | 1019.0 |
| 20260506160054 | 11 | 165 | 0.0 | 0.0 | 0.00 | 0.00 | 0.00 | 100 | 1018.9 |
| 20260506154607 | 11 | 169 | 0.0 | 0.0 | 0.00 | 0.00 | 0.00 | 100 | 1018.9 |
| 20260506153054 | 11 | 65 | 0.0 | 0.0 | 0.00 | 0.00 | 0.00 | 100 | 1018.7 |
| 20260506151541 | 11 | 60 | 0.0 | 0.0 | 0.00 | 0.00 | 0.00 | 100 | 1018.8 |
| 20260506150037 | 10 | 60 | 0.0 | 0.0 | 0.00 | 0.00 | 0.00 | 100 | 1018.7 |
| 20260506144532 | 10 | 58 | 0.0 | 0.0 | 0.00 | 0.00 | 0.00 | 100 | 1018.8 |
| 20260506143035 | 10 | 190 | 1.6 | 0.0 | 0.00 | 0.00 | 0.00 | 100 | 1018.4 |
| 20260506141523 | 10 | 83 | 0.0 | 0.0 | 0.00 | 0.00 | 0.00 | 100 | 1018.5 |
| 20260506140019 | 10 | 124 | 0.0 | 0.0 | 0.00 | 0.00 | 0.00 | 100 | 1018.7 |
| 20260506134515 | 10 | 163 | 0.0 | 0.0 | 0.00 | 0.00 | 0.00 | 100 | 1018.7 |
| 20260506133011 | 11 | 164 | 0.0 | 0.0 | 0.00 | 0.00 | 0.00 | 100 | 1018.4 |
| 20260506131508 | 11 | 202 | 0.0 | 0.0 | 0.00 | 0.00 | 0.00 | 100 | 1018.3 |
| 20260506130002 | 11 | 263 | 0.0 | 0.0 | 0.00 | 0.00 | 0.00 | 100 | 1017.9 |
| 20260506124558 | 11 | 263 | 0.0 | 0.0 | 0.00 | 0.00 | 0.00 | 100 | 1018.0 |
| 20260506123053 | 11 | 344 | 0.0 | 0.0 | 0.00 | 0.00 | 0.00 | 100 | 1017.9 |
| 20260506121548 | 11 | 344 | 0.0 | 0.0 | 0.00 | 0.00 | 0.00 | 100 | 1017.9 |
| 20260506120055 | 11 | 344 | 0.0 | 0.0 | 0.00 | 0.00 | 0.00 | 100 | 1017.7 |
| 20260506114546 | 11 | 350 | 0.0 | 0.0 | 0.00 | 0.00 | 0.00 | 100 | 1017.5 |
| 20260506113036 | 11 | 350 | 0.0 | 0.0 | 0.00 | 0.00 | 0.00 | 100 | 1017.6 |
| 20260506111537 | 11 | 350 | 0.0 | 0.0 | 0.00 | 0.00 | 0.00 | 100 | 1017.6 |
| 20260506110030 | 11 | 338 | 0.0 | 0.0 | 0.00 | 0.00 | 0.00 | 4 | 1017.6 |
| 20260506104522 | 11 | 246 | 0.0 | 0.0 | 0.00 | 0.00 | 0.00 | 6 | 1017.4 |
| 20260506103018 | 11 | 196 | 0.0 | 0.0 | 0.00 | 0.00 | 0.00 | 6 | 1017.3 |
| 20260506101514 | 11 | 196 | 0.0 | 0.0 | 0.00 | 0.00 | 0.00 | 4 | 1017.1 |
| 20260506100009 | 11 | 197 | 0.0 | 0.0 | 0.00 | 0.00 | 0.00 | 3 | 1017.0 |